#timestamp,LO_Frequency,Hit,StdDev 
1667372415.2,286047005.2,N
1667372435.1,286047003.3,N
1667372436.0,286047003.3,N
1667372455.8,286047004.3,N
1667372475.6,286047004.4,N
1667372495.5,286047002.1,N
1667372515.3,286047002.6,N
1667372535.1,286047004.2,N
1667372555.9,286047003.6,N
1667372575.7,286047005.9,N
1667372595.6,286047001.5,N
1667372615.4,286047000.1,N
1667372635.2,286047002.7,N
1667372655.1,286046997.1,N
1667372656.0,286046997.1,N
1667372675.8,286046996.7,N
1667372695.6,286046995.6,N
1667372715.5,286046997.2,N
1667372735.3,286046991.7,N
1667372755.2,286046990.1,N
1667372775.9,286046994.0,N
1667372795.7,286046992.1,N
1667372815.6,286046995.8,N
1667372835.4,286046993.8,N
1667372855.2,286046992.5,N
1667372875.1,286046991.0,N
1667372876.0,286046991.0,N
1667372895.8,286046990.6,N
1667372915.7,286046990.6,N
1667372935.5,286046990.7,N
1667372955.3,286046989.7,N
1667372975.2,286046988.2,N
1667372995.9,286046985.9,N
1667373015.7,286046984.0,N
1667373035.6,286046983.8,N
1667373055.4,286046985.4,N
1667373075.2,286046986.0,N
1667373095.1,286046986.3,N
1667373096.0,286046986.3,N
1667373115.8,286046986.8,N
1667373135.7,286046982.5,Y
1667373155.5,286046993.2,P
1667373175.3,286046993.0,P
1667373195.2,286046989.8,P
1667373215.0,286046991.4,Y
1667373215.9,286046991.4,P
1667373235.8,286046995.5,P
1667373255.6,286046995.8,N
1667373275.4,286046993.9,Y
1667373295.3,286047000.8,P
1667373315.1,286046997.6,N
1667373335.8,286046997.7,N
1667373355.7,286047004.3,N
1667373375.5,286047002.2,N
1667373395.4,286046994.0,N
1667373415.2,286046990.2,N
1667373435.0,286046988.8,N
1667373435.9,286046988.8,N
1667373455.8,286046990.8,N
1667373475.6,286046993.7,N
1667373495.4,286046994.3,N
1667373515.3,286046991.0,N
1667373535.1,286046993.1,N
1667373555.9,286046988.1,N
1667373575.7,286046989.5,N
1667373595.5,286046993.0,N
1667373615.4,286046986.0,Y
1667373635.2,286046991.0,P
1667373655.0,286046986.9,P
1667373655.9,286046986.9,P
1667373675.8,286046987.0,Y
1667373695.6,286046997.0,P
1667373715.5,286047004.3,N
1667373735.3,286047008.1,N
1667373755.1,286047006.1,N
1667373775.9,286047005.5,N
1667373795.7,286047004.5,N
1667373815.5,286047001.5,N
1667373835.4,286046997.7,N
1667373855.2,286046997.4,N
1667373875.1,286047001.1,N
1667373876.0,286047001.1,N
1667373895.8,286047005.8,N
1667373915.6,286047004.5,N
1667373935.5,286047003.2,N
1667373955.3,286047005.4,N
1667373975.2,286047005.6,N
1667373995.9,286047006.8,N
1667374015.7,286047000.2,N
1667374035.6,286046994.1,N
1667374055.4,286046994.5,N
1667374075.2,286047001.0,N
1667374095.1,286047005.8,N
1667374096.0,286047005.8,N
1667374115.8,286047007.1,N
1667374135.7,286047007.6,N
1667374155.5,286047007.0,N
1667374175.3,286047007.1,N
1667374195.2,286047003.3,N
1667374215.0,286047003.5,N
1667374215.9,286047003.5,N
1667374235.7,286047008.0,N
1667374255.6,286047012.1,Y
1667374275.4,286047012.3,P
1667374295.3,286047013.7,P
1667374315.1,286047015.9,P
1667374335.8,286047012.9,N
1667374355.7,286047011.9,N
1667374375.5,286047010.4,N
1667374395.3,286047008.6,N
1667374415.2,286047011.0,Y
1667374435.0,286047002.5,P
1667374435.9,286047002.5,N
1667374455.8,286046987.4,P
1667374475.6,286046978.3,N
1667374495.4,286046975.6,N
1667374515.3,286046973.9,N
1667374535.1,286046970.7,N
1667374555.9,286046969.8,N
1667374575.7,286046969.0,N
1667374595.5,286046963.0,N
1667374615.4,286046958.2,N
1667374635.2,286046959.0,N
1667374655.0,286046958.2,N
1667374655.9,286046958.2,N
1667374675.8,286046958.3,N
1667374695.6,286046962.2,N
1667374715.4,286046958.0,N
1667374735.3,286046955.0,N
1667374755.1,286046952.2,N
1667374775.9,286046950.9,N
1667374795.7,286046948.3,Y
1667374815.5,286046974.8,P
1667374835.4,286046976.7,P
1667374855.2,286046969.9,P
1667374875.1,286046966.7,Y
1667374876.0,286046966.7,P
1667374895.8,286046990.9,N
1667374915.6,286046985.5,N
1667374935.5,286046978.9,N
1667374955.3,286046978.5,N
1667374975.2,286046980.0,N
1667374995.9,286046975.8,Y
1667375015.7,286046996.2,P
1667375035.6,286046994.9,N
1667375055.4,286047001.2,N
1667375075.2,286046995.7,N
1667375095.1,286046990.1,N
1667375096.0,286046990.1,N
1667375115.8,286046989.5,N
1667375135.7,286046982.3,N
1667375155.5,286046977.3,Y
1667375175.4,286046986.0,P
1667375195.2,286046986.4,P
1667375215.0,286046982.6,P
1667375215.9,286046982.6,Y
1667375235.8,286046993.2,P
1667375255.7,286046990.1,N
1667375275.5,286046991.4,P
1667375295.3,286046984.4,Y
1667375315.2,286046992.3,P
1667375335.0,286046987.8,P
1667375335.9,286046986.3,P
1667375355.8,286046982.2,Y
1667375375.6,286046995.9,P
1667375395.4,286046993.0,N
1667375415.3,286046989.3,P
1667375435.1,286046988.1,Y
1667375455.9,286046998.0,P
1667375475.7,286046995.4,N
1667375495.5,286046991.4,P
1667375515.4,286046987.6,Y
1667375535.2,286046989.2,P
1667375555.0,286046986.4,P
1667375556.0,286046986.4,P
1667375575.8,286046981.6,Y
1667375595.6,286046988.7,P
1667375615.5,286046989.5,P
1667375635.3,286046989.6,P
1667375655.1,286046989.7,Y
1667375675.9,286046999.3,P
1667375695.7,286047000.6,N
1667375715.6,286046999.1,N
1667375735.4,286046996.1,N
1667375755.2,286046997.2,N
1667375775.1,286046996.2,N
1667375776.0,286046996.2,N
1667375795.8,286046992.5,N
1667375815.7,286046989.4,Y
1667375835.5,286046996.9,P
1667375855.3,286046996.9,P
1667375875.2,286046993.8,P
1667375895.9,286046993.2,Y
1667375915.7,286046994.1,P
1667375935.6,286046990.9,P
1667375955.4,286046994.9,N
1667375975.2,286046997.0,N
1667375995.1,286046996.2,N
1667375996.0,286046996.2,N
